sat.trackr.live / text

‹ back to catalog

STARLINK-34392

NORAD 64451 · 2025-130P

PAYLOAD ACTIVE UNKNOWN

§ Identity

Operator
Country
US
Launch date
2025-06-18
Launch site
AFETR
Launch vehicle
Mass (kg)
RCS (m²)

Purposes: comms

External: N2YO · Heavens-Above · Gunter

§ Orbital elements

Epoch: 2026-05-25T01:44:45.338208Z

Period
94.10 min
Inclination
53.1574°
Eccentricity
0.0001188
Mean motion
15.30221146 rev/d
Perigee alt
474.3 km
Apogee alt
476.0 km
Semi-major
6,853.3 km
B*
7.4305e-4
RAAN
94.0256°
Arg perigee
105.4822°
Mean anomaly
254.6310°
Rev number
5,239

§ Raw data

STARLINK-343921 64451U 25130P   26145.07274697  .00021727  00000+0  74305-3 0  99912 64451  53.1574  94.0256 0001188 105.4822 254.6310 15.30221146 52398

JSON: /api/v1/satellites/64451 · /tle

For live sub-satellite position, see the globe view (requires WebGL).

§ Visibility from observer

Set your observer location to see the next 7 days of passes ≥ 10°. The values pass through the URL so the page stays shareable.

No JS? Fill the form by hand. The geolocation button needs JavaScript.